FW1555 Weather Reports


time (UTC)temp
C
wind
direction
speed
KPH
gust
KPH
rain 1hr
cm
rain 24hr
cm
rain mn
cm
humidity
%
barometer
mb
20260905224608 24 0 0.0 0.0 0.00 0.00 0.00 68 1010.4
20260905223106 25 0 0.0 0.0 0.00 0.00 0.00 67 1010.6
20260905221557 25 0 0.0 0.0 0.00 0.00 0.00 67 1010.5
20260905220054 25 0 0.0 1.6 0.00 0.00 0.00 64 1010.4
20260905214549 25 0 0.0 4.8 0.00 0.00 0.00 63 1010.2
20260905213100 26 0 0.0 3.2 0.00 0.00 0.00 60 1010.2
20260905211558 25 0 0.0 0.0 0.00 0.00 0.00 60 1010.2
20260905210055 26 0 0.0 6.4 0.00 0.00 0.00 56 1010.3
20260905204550 27 0 0.0 3.2 0.00 0.00 0.00 59 1010.1
20260905203101 26 0 0.0 3.2 0.00 0.00 0.00 58 1010.1
20260905201608 26 0 0.0 1.6 0.00 0.00 0.00 58 1010.0
20260905200052 26 32 0.0 3.2 0.00 0.00 0.00 56 1010.1
20260905194600 26 0 0.0 4.8 0.00 0.00 0.00 55 1010.1
20260905193057 26 0 0.0 4.8 0.00 0.00 0.00 59 1010.0
20260905191557 26 0 0.0 9.7 0.00 0.00 0.00 59 1010.2
20260905190110 25 0 0.0 6.4 0.00 0.00 0.00 61 1010.2
20260905184622 25 0 0.0 6.4 0.00 0.00 0.00 61 1010.5
20260905183059 25 304 0.0 4.8 0.00 0.00 0.00 60 1010.4
20260905181555 26 0 0.0 8.0 0.00 0.00 0.00 62 1010.5
20260905180053 25 0 0.0 9.7 0.00 0.00 0.00 60 1010.7
20260905174556 25 349 0.0 8.0 0.00 0.00 0.00 62 1010.5
20260905173058 25 0 0.0 8.0 0.00 0.00 0.00 61 1010.5
20260905171557 25 0 1.6 8.0 0.00 0.00 0.00 61 1010.7
20260905170120 25 0 0.0 8.0 0.00 0.00 0.00 63 1010.7
20260905164602 25 0 0.0 4.8 0.00 0.00 0.00 67 1010.8
20260905163102 25 0 0.0 8.0 0.00 0.00 0.00 66 1010.9
20260905161557 25 0 0.0 4.8 0.00 0.00 0.00 68 1010.8
20260905160052 25 0 0.0 8.0 0.00 0.00 0.00 66 1010.8
20260905154553 25 0 0.0 6.4 0.00 0.00 0.00 67 1010.7
20260905153058 24 0 0.0 4.8 0.00 0.00 0.00 69 1010.9
20260905151555 24 0 0.0 6.4 0.00 0.00 0.00 67 1010.8
20260905150050 23 0 0.0 4.8 0.00 0.00 0.00 72 1010.8
20260905144559 23 278 0.0 4.8 0.00 0.00 0.00 73 1010.8
20260905143100 23 0 0.0 4.8 0.00 0.00 0.00 73 1010.7
20260905141629 23 0 0.0 6.4 0.00 0.00 0.00 73 1010.7
20260905140101 23 0 0.0 3.2 0.00 0.00 0.00 74 1010.6
20260905134600 23 0 0.0 3.2 0.00 0.00 0.00 74 1010.6
20260905133057 23 0 0.0 3.2 0.00 0.00 0.00 75 1010.7
20260905131619 22 0 0.0 4.8 0.00 0.00 0.00 76 1010.7
20260905130100 22 0 0.0 0.0 0.00 0.00 0.00 78 1010.8
20260905124601 22 0 0.0 0.0 0.00 0.00 0.00 80 1010.9
20260905123108 21 0 0.0 0.0 0.00 0.00 0.00 85 1011.1
20260905121603 18 0 0.0 0.0 0.00 0.00 0.00 91 1011.1
20260905120100 17 0 0.0 0.0 0.00 0.00 0.00 92 1011.1
20260905114557 17 0 0.0 0.0 0.00 0.00 0.00 94 1011.1
20260905113101 16 0 0.0 0.0 0.00 0.00 0.00 94 1010.9
20260905111558 16 0 0.0 0.0 0.00 0.00 0.00 94 1010.5
20260905110049 16 0 0.0 0.0 0.00 0.00 0.00 93 1010.3
20260905104558 16 0 0.0 0.0 0.00 0.00 0.00 91 1010.1
20260905103055 17 0 0.0 0.0 0.00 0.00 0.00 91 1010.2
20260905101608 17 0 0.0 0.0 0.00 0.00 0.00 91 1010.1
20260905100050 17 0 0.0 0.0 0.00 0.00 0.00 90 1010.0
20260905094550 17 0 0.0 0.0 0.00 0.00 0.00 89 1009.9
20260905093100 17 0 0.0 0.0 0.00 0.00 0.00 88 1009.7
20260905091626 18 0 0.0 0.0 0.00 0.00 0.00 87 1009.7
20260905090048 18 0 0.0 0.0 0.00 0.00 0.00 85 1009.8
20260905084616 18 0 0.0 0.0 0.00 0.00 0.00 84 1009.6
20260905083101 19 0 0.0 0.0 0.00 0.00 0.00 83 1009.6
20260905081600 20 0 0.0 0.0 0.00 0.00 0.00 83 1009.6
20260905080100 20 0 0.0 0.0 0.00 0.00 0.00 83 1009.7
20260905074559 20 0 0.0 0.0 0.00 0.00 0.00 82 1009.7
20260905073053 20 0 0.0 0.0 0.00 0.00 0.00 81 1009.6
20260905071604 20 0 0.0 0.0 0.00 0.00 0.00 80 1009.5
20260905070113 21 0 0.0 0.0 0.00 0.00 0.00 79 1009.4
20260905064557 21 0 0.0 0.0 0.00 0.00 0.00 79 1009.7
20260905063055 21 0 0.0 0.0 0.00 0.00 0.00 80 1009.8
20260905061554 21 0 0.0 0.0 0.00 0.00 0.00 80 1009.9
20260905060101 21 0 0.0 0.0 0.00 0.00 0.00 80 1009.9
20260905054600 21 0 0.0 0.0 0.00 0.00 0.00 82 1010.0
20260905053101 21 0 0.0 0.0 0.00 0.00 0.00 82 1010.2
20260905051551 21 0 0.0 0.0 0.00 0.00 0.00 82 1010.6
20260905050050 21 0 0.0 0.0 0.00 0.00 0.00 82 1010.6
20260905044559 21 0 0.0 0.0 0.00 0.00 0.00 83 1010.6
20260905043056 21 0 0.0 0.0 0.00 0.00 0.00 81 1010.8
20260905041550 21 0 0.0 0.0 0.00 0.00 0.00 81 1010.8
20260905040048 21 0 0.0 0.0 0.00 0.00 0.00 81 1010.7
20260905034554 21 0 0.0 0.0 0.00 0.00 0.00 80 1010.8
20260905033055 22 0 0.0 0.0 0.00 0.00 0.00 79 1010.6
20260905031556 22 0 0.0 0.0 0.00 0.00 0.00 79 1010.7
20260905030104 22 0 0.0 0.0 0.00 0.00 0.00 79 1010.9
20260905024630 21 0 0.0 0.0 0.00 0.00 0.00 80 1010.8
20260905023058 21 0 0.0 0.0 0.00 0.00 0.00 82 1010.7
20260905021601 21 0 0.0 0.0 0.00 0.00 0.00 82 1010.7
20260905020051 20 0 0.0 0.0 0.00 0.00 0.00 83 1010.9
20260905014558 20 0 0.0 0.0 0.00 0.00 0.00 84 1010.8
20260905013054 20 0 0.0 0.0 0.00 0.00 0.00 84 1010.7
20260905011557 21 0 0.0 0.0 0.00 0.00 0.00 84 1010.6
20260905010048 21 0 0.0 0.0 0.00 0.00 0.00 81 1010.8
20260905004603 22 0 0.0 0.0 0.00 0.00 0.00 80 1010.8
20260905003054 23 0 0.0 0.0 0.00 0.00 0.00 75 1010.4
20260905001552 23 0 0.0 0.0 0.00 0.00 0.00 73 1010.4
20260905000101 24 0 0.0 0.0 0.00 0.00 0.00 72 1010.4
20260904234559 24 0 0.0 0.0 0.00 0.00 0.00 71 1010.6
20260904233101 25 0 0.0 0.0 0.00 0.00 0.00 69 1010.4
20260904231553 26 0 0.0 1.6 0.00 0.00 0.00 66 1010.4